This is the latest recevied weather packets stored in our database for station/object K3RUP-1. If no packets are shown the sender has not sent any weather packets the latest 10 day(s).
| Time | Temp. | Humidity | Pressure | Rain* | Wind** | Luminosity | Snow |
|---|---|---|---|---|---|---|---|
| 1777567002 | 19.44° C | 51% | 1007.4 hPa | 0 mm | - | 642 W/m² | - |
| 1777566700 | 19.44° C | 48% | 1007.5 hPa | 0 mm | - | 180 W/m² | - |
| 1777566397 | 19.44° C | 45% | 1007.7 hPa | 0 mm | - | 242 W/m² | - |
| 1777566094 | 18.89° C | 54% | 1007.6 hPa | 0 mm | - | 642 W/m² | - |
| 1777565789 | 18.89° C | 51% | 1007.6 hPa | 0 mm | - | 677 W/m² | - |
| 1777565486 | 19.44° C | 51% | 1007.6 hPa | 0 mm | - | 711 W/m² | - |
| 1777565182 | 19.44° C | 51% | 1007.6 hPa | 0 mm | - | 426 W/m² | - |
| 1777564879 | 20° C | 53% | 1007.7 hPa | 0 mm | - | 715 W/m² | - |
| 1777564579 | 19.44° C | 54% | 1007.5 hPa | 0 mm | - | 715 W/m² | - |
| 1777564275 | 19.44° C | 52% | 1007.7 hPa | 0 mm | - | 742 W/m² | - |
| 1777563972 | 19.44° C | 53% | 1007.8 hPa | 0 mm | - | 750 W/m² | - |
| 1777563668 | 18.89° C | 54% | 1007.8 hPa | 0 mm | - | 781 W/m² | - |
| 1777563363 | 18.89° C | 54% | 1008 hPa | 0 mm | - | 759 W/m² | - |
| 1777563059 | 18.33° C | 57% | 1008 hPa | 0 mm | - | 758 W/m² | - |
| 1777562755 | 18.33° C | 62% | 1008 hPa | 0 mm | - | 786 W/m² | - |
| 1777562453 | 18.33° C | 60% | 1008 hPa | 0 mm | - | 767 W/m² | - |
| 1777562150 | 17.78° C | 61% | 1008 hPa | 0 mm | - | 763 W/m² | - |
| 1777561848 | 17.78° C | 67% | 1008.1 hPa | 0 mm | - | 364 W/m² | - |
| 1777561544 | 17.78° C | 64% | 1008.1 hPa | 0 mm | - | 396 W/m² | - |
| 1777561239 | 17.22° C | 67% | 1008.3 hPa | 0 mm | - | 492 W/m² | - |
| 1777560938 | 17.22° C | 67% | 1008.2 hPa | 0 mm | - | 339 W/m² | - |
| 1777560636 | 17.22° C | 72% | 1008.2 hPa | 0 mm | - | 119 W/m² | - |
| 1777560334 | 16.67° C | 71% | 1008.1 hPa | 0 mm | - | 249 W/m² | - |
| 1777560032 | 16.67° C | 74% | 1008.4 hPa | 0 mm | - | 154 W/m² | - |
| 1777559727 | 16.67° C | 73% | 1008.3 hPa | 0 mm | - | 229 W/m² | - |
* Rain latest hour (hover to see other rain measurements)
** Current wind speed in m/s (hover to see current wind gust speed)